Location: Powder Track
(41.8531°N, 72.3584°W)
Time: 08:39:23
(UTC+00:00)

Altair - Pass Details

Date: 29 July 2021
Orbit: 1501 x 1682 km, 47.2° (Epoch: 19 September)

Event Time Altitude Azimuth Distance (km) Brightness Sun altitude
Exits shadow 05:10:38 23° 120° (ESE) 2,824 8.6 -29.4°
Drops below altitude 10° 05:16:29 10° 81° (E) 3,681 9.6 -29.3°
Sets 05:20:15 0° 68° (ENE) 4,651 10.4 -29.2°
